Regional Weather Roundup
Issued by NWS Charleston, SC

Current Version | Previous Version | Graphics & Text | Print | Product List | Glossary On
Versions: 1 2 3 4 5 6 7 8 9 10 11 12 13 14 15 16 17 18 19 20 21 22 23 24 25 26 27 28 29 30 31 32 33 34 35 36 37 38 39 40 41 42 43 44 45 46 47 48 49 50
000
ASUS42 KCHS 251411
RWRCHS

REGIONAL WEATHER ROUNDUP
NATIONAL WEATHER SERVICE CHARLESTON SC
900 AM EST SAT FEB 25 2017

NOTE: "FAIR" INDICATES FEW OR NO CLOUDS BELOW 12,000 FEET WITH NO
SIGNIFICANT WEATHER AND/OR OBSTRUCTIONS TO VISIBILITY.

NOT ALL STATIONS ARE QUALITY CONTROLLED. USE DATA WITH CAUTION...
ESPECIALLY DEWPOINT OBSERVATIONS.

SCZ027-030-031-034>040-042>050-251500-
...SOUTHEAST SOUTH CAROLINA...

CITY           SKY/WX    TMP DP  RH WIND       PRES   REMARKS
N CHARLESTON   MOSUNNY   65  63  93 SW13      29.82R
WATERFRONT PRK   N/A     65  65 100 SW6       29.82R
MOUNT PLEASANT FAIR      66  66 100 SW9       29.83R
JOHNS ISLAND   FAIR      66  66 100 SW10      29.83S
PINOPOLIS        N/A     64  63  94 SW9       29.71S
MONCKS CORNER  FAIR      64  63  94 SW9       29.81S
SUMMERVILLE    CLOUDY    61  61 100 SW6       29.83R
BEAUFORT MCAS  SUNNY     66  65  96 SW10      29.84R
BEAUFORT ARPT  FAIR      64  63  94 SW10      29.84R
HILTON HEAD IS MOSUNNY   66  64  94 SW14      29.85R
WALTERBORO     PTSUNNY   63  61  94 SW9       29.83S
ALLENDALE      CLOUDY    64  63  94 S5        29.81S

...SOUTHERN MIDLANDS AND PEE DEE...

CITY           SKY/WX    TMP DP  RH WIND       PRES   REMARKS
GEORGETOWN     FAIR      63  63 100 SW7       29.83S
KINGSTREE      FAIR      63  59  88 S8        29.80S
ORANGEBURG     CLOUDY    62  61  96 SW9       29.80S
BARNWELL       CLOUDY    66  63  88 S7        29.80S
AIKEN          FAIR      63  59  88 SW13      29.82R
MANNING        PTSUNNY   64  59  82 MISG      29.79F
COLUMBIA       PTSUNNY   67  60  78 S12       29.76S
SUMTER         PTSUNNY   64  60  89 S9        29.75F
FLORENCE       SUNNY     65  62  90 SW10      29.78F
MYRTLE BEACH   MOSUNNY   64  61  88 SW7       29.83S
N MYRTLE BEACH SUNNY     62  62 100 S7        29.81S

$$

GAZ063-065-086>088-099>101-113>116-118-119-134>141-150-251500-
...SOUTHEAST GEORGIA...

CITY           SKY/WX    TMP DP  RH WIND       PRES   REMARKS
SAVANNAH ARPT  PTSUNNY   65  61  87 S6        29.85S
HUNTER AAF     MOSUNNY   64  64 100 SW6       29.83S
FORT STEWART   NOT AVBL
STATESBORO     SUNNY     68  65  88 SW3       29.84R
SYLVANIA       MOSUNNY  N/A N/A N/A SW6       29.84R
CLAXTON        FAIR     N/A N/A N/A S5        29.85R

...CSRA...CENTRAL AND FAR SOUTHEAST GEORGIA...

CITY           SKY/WX    TMP DP  RH WIND       PRES   REMARKS
THOMSON        MOSUNNY   66  62  88 W10       29.83S
AUGUSTA-BUSH   MOSUNNY   66  61  84 SW10      29.79R
AUGUSTA-DANIEL MOSUNNY   65  58  78 SW7       29.80R
SWAINSBORO     FAIR      64  61  88 SW7       29.84R
VIDALIA        MOSUNNY   68  64  88 W10       29.85R
EASTMAN        CLOUDY    64  63  94 W5        29.89R
HAZLEHURST     FAIR      68  64  86 W10G17    29.86R
ALMA           SUNNY     67  62  84 SW8       29.86S
WAYCROSS       MOSUNNY   68  68 100 SW8       29.88S
JESUP          PTSUNNY   64  61  88 W3        29.87S
BAXLEY         FAIR      68  68 100 W6        29.86S
BRUNSWICK      CLOUDY    64  64 100 SW6       29.89R
SAINT SIMONS   CLOUDY    66  64  93 SW8       29.88R

$$

SCZ027-028-034-036>038-045-046-048>050-GAZ119-141-251500-
...LAKE AND SUPPLEMENTAL COASTAL OBSERVATIONS...

STATION/POSITION TIME  TEMP    WIND        PRES    WAVE   SWELL
                       AIR SEA DIR/SP/G            HT/PER HT/PER/DIR
                 (UTC) (F)     (DEG/KT/KT) (MB)    (FT/S) (FT/S/D)
WINYAH BAY       NOT AVBL
LAKE MURRAY      1320   62     190/  6/  7 1007.5R
ACE BASIN NERRS  NOT AVBL
FORT PULASKI     1348   64 63  260/  6/  9 1011.1R
SAPELO ISLAND    1300   64     220/  7     1011.0

$$

ANZ835-935-AMZ111-154-330-350-352-354-370-450-454-472-251500-
...C-MAN AND BUOY OBSERVATIONS...

STATION/POSITION TIME  TEMP    WIND        PRES    WAVE   SWELL
                       AIR SEA DIR/SP/G            HT/PER HT/PER/DIR
                 (UTC) (F)     (DEG/KT/KT) (MB)    (FT/S) (FT/S/D)
BUOY 41004       1250   70 70  240/ 10/ 12 1009.6    7/11   7/110/11
BUOY 41008       1250   62 62  230/  8/ 10 1010.6    4/11   3/ 70/11
FOLLY BEACH CMAN 1300   62     220/  8/  9 1010.3S
CAPERS NEARSHORE NOT AVBL
FRIPP NEARSHORE  1308   62 61  220/ 10/ 14 1010.0R


STATION/POSITION TIME  TEMP    WIND        PRES    WAVE   SWELL
                       AIR SEA DIR/SP/G            HT/PER HT/PER/DIR
                 (UTC) (F)     (DEG/KT/KT) (MB)    (FT/S) (FT/S/D)
5E ST. MARYS GA  1330      65                N/A     4/11   2/100/11
FRYING PAN BUOY  1350   69 72  240/ 10/ 14 1009.8S   6/11   5/120/11
BUOY 41025       1350   71 76  320/  4/  8 1008.9R   7/11   7/120/11
CAPE LOOKOUT NC  1300   63     330/  2/  3 1008.9R
BUOY 41002       1350   70 70  350/  8/ 10 1009.1R   9/10   8/130/10
BUOY 41010       NOT AVBL
ST AUGUSTINE FL  1400   63 67  260/  9/ 11 1013.8R


$$



USA.gov is the U.S. government's official web portal to all federal, state and local government web resources and services.